Location: Newark
(46.9000°N, 28.3500°E)
Time: 15:13:35
(UTC+00:00)

Vanguard 1 Rocket - Pass Details

Date: 26 August 2019
Orbit: 651 x 4225 km, 34.3° (Epoch: 19 September)

Event Time Altitude Azimuth Distance (km) Brightness Sun altitude
Rises 03:00:27 0° 252° (WSW) 3,112 - -3.6°
Exits shadow 03:01:31 - 246° (WSW) 2,784 9.2 -3.5°
Reaches altitude 10° 03:03:05 10° 234° (SW) 2,379 8.9 -3.2°
Maximum altitude 03:07:03 20° 187° (S) 2,110 9.1 -2.6°
Drops below altitude 10° 03:12:32 10° 142° (SE) 3,431 10.6 -1.7°
Sets 03:17:23 0° 129° (SE) 5,046 11.7 -0.9°
